User: anonymous   Login
Location: Carbonear
(47.7333°N, 53.2500°W)
Time: 09:00:03
(UTC+00:00)
Language:

XW-2D - Orbit

View from above orbital plane
View from above orbital plane
View from above satellite
View from above satellite

Ground track
Ground track

The orbit data is extracted from the following two-line orbital elements,

1 40907U 15049J   22329.84440139  .00005848  00000-0  25937-3 0  9994
2 40907  97.4950 332.3354 0013317 143.1279 339.0290 15.21903815397494
Epoch (UTC): 25 November 2022 20:15:56
Eccentricity: 0.0013317
inclination: 97.4950°
perigee height: 491 km
apogee height: 509 km
right ascension of ascending node: 332.3354°
argument of perigee: 143.1279°
revolutions per day: 15.21903815
mean anomaly at epoch: 339.0290°
orbit number at epoch: 39749

The dashed part of the orbit path shows where the satellite is in the earth's shadow,  

DLR